Location: Frankfurt am Main
(50.1109°N, 8.6821°E)
Time: 20:53:25
(UTC+02:00)

ISS - Visible Passes

Search period start: 23 July 2024 00:00
Search period end: 02 August 2024 00:00
Orbit: 409 x 423 km, 51.6° (Epoch: 23 July)

Date Brightness Start Highest point End Pass type
(mag) Time Alt. Az. Time Alt. Az. Time Alt. Az.
23 Jul -3.5 22:13:54 10° WNW 22:17:09 54° SSW 22:20:10 11° SE visible
23 Jul -1.4 23:51:49 10° WSW 23:53:03 12° SW 23:53:03 12° SW visible
24 Jul -1.9 23:02:32 10° W 23:04:57 19° SW 23:06:08 16° S visible
25 Jul -2.4 22:13:37 10° W 22:16:30 28° SW 22:19:14 11° SSE visible
27 Jul -1.3 22:13:48 10° WSW 22:15:31 13° SW 22:17:13 10° S visible
